EW4556 Weather Reports


time (UTC)temp
C
wind
direction
speed
KPH
gust
KPH
rain 1hr
cm
rain 24hr
cm
rain mn
cm
humidity
%
barometer
mb
20260510060008 10 187 0.0 0.0 0.00 0.00 0.00 97 1009.5
20260510054504 10 168 0.0 0.0 0.00 0.00 0.00 97 1009.0
20260510053004 10 168 0.0 0.0 0.00 0.00 0.00 97 1008.9
20260510051601 10 168 0.0 0.0 0.00 0.00 0.00 97 1009.0
20260510051502 10 168 0.0 0.0 0.00 0.00 0.00 97 1009.0
20260510050100 10 168 0.0 0.0 0.00 0.00 0.00 97 1009.1
20260510044559 10 168 0.0 0.0 0.00 0.00 0.00 97 1008.9
20260510043103 10 168 0.0 0.0 0.00 0.00 0.00 97 1008.6
20260510041556 10 168 0.0 0.0 0.00 0.00 0.00 97 1008.6
20260510040056 10 168 0.0 0.0 0.00 0.00 0.00 97 1008.4
20260510034555 10 168 0.0 0.0 0.00 0.00 0.00 96 1008.3
20260510033025 10 168 0.0 0.0 0.00 0.00 0.00 96 1008.3
20260510031526 10 168 0.0 0.0 0.00 0.00 0.00 96 1008.3
20260510030021 10 168 0.0 1.6 0.00 0.00 0.00 96 1008.4
20260510024521 10 168 0.0 0.0 0.00 0.00 0.00 96 1008.3
20260510023020 10 168 0.0 0.0 0.00 0.00 0.00 96 1008.4
20260510021535 10 168 0.0 0.0 0.00 0.00 0.00 96 1008.4
20260510020049 10 168 0.0 0.0 0.00 0.00 0.00 96 1008.3
20260510014549 10 168 0.0 0.0 0.00 0.00 0.00 96 1008.1
20260510013051 10 168 0.0 0.0 0.00 0.00 0.00 96 1008.1
20260510011551 10 168 0.0 0.0 0.00 0.00 0.00 96 1007.9
20260510010045 10 168 0.0 0.0 0.00 0.00 0.00 95 1008.0
20260510004545 10 168 0.0 0.0 0.00 0.00 0.00 96 1008.0
20260510003043 11 168 0.0 0.0 0.00 0.00 0.00 96 1007.8
20260510001544 11 168 0.0 3.2 0.00 0.00 0.00 96 1007.5
20260510000049 11 207 0.0 1.6 0.00 0.00 0.00 95 1007.3
20260509234541 11 207 0.0 1.6 0.00 0.00 0.00 94 1007.3
20260509233035 11 32 0.0 0.0 0.00 0.00 0.00 94 1006.8
20260509231539 11 32 0.0 0.0 0.00 0.00 0.00 94 1006.5
20260509230035 12 63 0.0 1.6 0.00 0.00 0.00 93 1006.7
20260509224532 12 205 0.0 1.6 0.00 0.00 0.00 92 1006.9
20260509223030 12 217 0.0 3.2 0.00 0.00 0.00 93 1006.9
20260509221525 11 221 0.0 0.0 0.00 0.00 0.00 92 1007.1
20260509220024 12 195 0.0 1.6 0.00 0.00 0.00 93 1007.2
20260509214523 11 15 0.0 0.0 0.00 0.00 0.00 94 1007.4
20260509213027 11 15 0.0 1.6 0.00 0.00 0.00 93 1007.4
20260509211516 11 214 0.0 0.0 0.00 0.00 0.00 95 1007.2
20260509210014 11 214 0.0 0.0 0.00 0.00 0.00 95 1007.5
20260509204512 11 214 0.0 0.0 0.00 0.00 0.00 95 1007.8
20260509203016 11 238 0.0 0.0 0.00 0.00 0.00 94 1007.7
20260509201507 10 235 0.0 4.8 0.00 0.00 0.00 95 1007.8
20260509200007 10 263 0.0 3.2 0.00 0.00 0.00 95 1008.1
20260509194505 10 195 0.0 3.2 0.00 0.00 0.00 95 1008.2
20260509193003 10 226 0.0 6.4 0.00 0.00 0.00 95 1008.4
20260509191608 10 266 0.0 3.2 0.00 0.00 0.00 95 1008.8
20260509190059 10 238 0.0 0.0 0.00 0.00 0.00 95 1008.9
20260509184602 11 209 0.0 0.0 0.00 0.00 0.00 96 1008.9
20260509183101 11 151 0.0 0.0 0.00 0.00 0.00 96 1008.9
20260509181527 11 149 0.0 0.0 0.00 0.00 0.00 96 1008.9
20260509180026 11 149 0.0 0.0 0.00 0.00 0.00 96 1008.9
20260509174619 11 149 0.0 0.0 0.00 0.00 0.00 96 1008.9
20260509173054 10 196 0.0 0.0 0.00 0.00 0.00 96 1008.8
20260509171522 10 192 0.0 0.0 0.00 0.00 0.00 96 1008.8
20260509170023 10 192 0.0 1.6 0.00 0.00 0.00 96 1008.6
20260509164516 10 192 0.0 0.0 0.00 0.00 0.00 96 1008.8
20260509163022 10 192 0.0 0.0 0.00 0.00 0.00 96 1008.9
20260509161514 10 192 0.0 1.6 0.00 0.00 0.00 96 1008.8
20260509160011 10 351 0.0 0.0 0.00 0.00 0.00 95 1009.1
20260509154538 9 49 0.0 1.6 0.00 0.00 0.00 96 1009.3
20260509153050 9 290 0.0 0.0 0.00 0.00 0.00 95 1009.6
20260509151532 9 290 0.0 0.0 0.00 0.00 0.00 95 1009.7
20260509150031 9 157 0.0 0.0 0.00 0.00 0.00 95 1009.7
20260509144531 8 138 0.0 0.0 0.00 0.00 0.00 95 1009.6
20260509143029 8 138 0.0 0.0 0.00 0.00 0.00 95 1009.6
20260509141556 8 82 0.0 0.0 0.00 0.00 0.00 95 1009.6
20260509140055 8 82 0.0 1.6 0.00 0.00 0.00 95 1009.6
20260509134525 8 187 0.0 1.6 0.00 0.00 0.00 95 1009.5
20260509133024 8 154 0.0 1.6 0.00 0.00 0.00 95 1009.8
20260509131521 8 155 0.0 1.6 0.00 0.00 0.00 95 1009.7
20260509130031 8 152 0.0 0.0 0.00 0.00 0.00 95 1009.9
20260509124520 8 208 0.0 0.0 0.00 0.00 0.00 95 1009.9
20260509123020 8 256 0.0 0.0 0.00 0.00 0.00 95 1009.7
20260509121523 8 173 0.0 0.0 0.00 0.00 0.00 95 1009.7
20260509120013 8 171 0.0 1.6 0.00 0.00 0.00 95 1009.6
20260509114513 8 182 0.0 0.0 0.00 0.00 0.00 95 1009.6
20260509113012 8 188 0.0 0.0 0.00 0.00 0.00 95 1009.7
20260509111508 8 103 0.0 0.0 0.00 0.00 0.00 95 1009.9
20260509110006 8 64 0.0 0.0 0.00 0.00 0.00 95 1009.9
20260509104509 7 64 0.0 0.0 0.00 0.00 0.00 95 1009.9
20260509103003 7 279 0.0 0.0 0.00 0.00 0.00 95 1009.7
20260509101504 7 279 0.0 0.0 0.00 0.00 0.00 95 1009.7
20260509100106 7 279 0.0 0.0 0.00 0.00 0.00 95 1009.6
20260509094608 7 279 0.0 0.0 0.00 0.00 0.00 94 1009.8
20260509093059 7 279 0.0 0.0 0.00 0.00 0.00 94 1009.9
20260509091606 7 279 0.0 0.0 0.00 0.00 0.00 94 1010.2
20260509090105 7 279 0.0 0.0 0.00 0.00 0.00 94 1010.2
20260509084601 7 279 0.0 0.0 0.00 0.00 0.00 94 1010.2
20260509083101 7 279 0.0 0.0 0.00 0.00 0.00 94 1010.2
20260509081555 7 279 0.0 0.0 0.00 0.00 0.00 94 1010.4
20260509080054 7 279 0.0 0.0 0.00 0.00 0.00 94 1010.6
20260509074554 7 279 0.0 0.0 0.00 0.00 0.00 94 1010.2
20260509073052 7 279 0.0 0.0 0.00 0.00 0.00 93 1009.8
20260509071548 7 279 0.0 0.0 0.00 0.00 0.00 93 1010.2
20260509070044 7 279 0.0 0.0 0.00 0.00 0.00 93 1010.5
20260509064541 7 279 0.0 1.6 0.00 0.00 0.00 92 1010.6
20260509063039 7 276 0.0 0.0 0.00 0.00 0.00 90 1010.6
20260509061542 8 276 0.0 0.0 0.00 0.00 0.00 87 1010.7